www.pogodaiklimat.ru

Погода и климат >> Архив погоды >> Россия >> Хабаровский край >> Тивяку


ПОГОДА в Тивяку

  • Прогноз погоды в Тивяку
  • Монитор погоды в Тивяку

АРХИВ ПОГОДЫ в Тивяку

Время (UTC), дата Ветер
(напр.,м/с)
 
Видим.   Явления Облачность Т
(С)
Тd
(С)
f
(%)
Тe
(С)
Тes
(С)
Комфортность P
(гПа)
Po
(гПа)
Тmin
(С)
Tmax
(С)
R
(мм)
R24
(мм)
S
(см)
15 16.09 штиль 0 50 км ясно -0.6 -0.7 99 -2 -2 1015.8 965.9
18 16.09 штиль 0 50 км ясно -1.6 -1.7 99 -3 -3 1016.0 965.9
21 16.09 штиль 0 50 км ясно -2.2 -2.4 99 -4 -4 1017.4 967.1 -2.4
00 17.09 ЮВ 1 50 км ясно +8.2 +4.4 77 +8 +14 1015.9 967.5
03 17.09 З 2 50 км ясно +14.2 0.0 38 +14 +24 1014.0 966.7
06 17.09 ЮЗ 2 50 км ясно +14.9 -0.5 35 +15 +20 1013.5 966.2
09 17.09 З 1 50 км ясно +8.9 +4.6 74 +8 +8 1013.9 965.7 +15.7
12 17.09 штиль 0 50 км ясно +1.0 +0.7 98 -0 -0 1015.5 965.9
15 17.09 штиль 0 50 км ясно -1.3 -1.4 99 -3 -3 1014.1 964.1
18 17.09 штиль 0 50 км 10/0
[Cs]
-2.6 -2.6 100 -4 -4 1011.5 961.4
21 17.09 штиль 0 50 км 10/0
[Cs]
-3.4 -3.6 99 -5 -5 1009.0 958.9 -3.7
00 18.09 штиль 0 50 км 10/0
[Ac trans Cs]
+5.6 +3.7 88 +5 +9 1004.6 956.3
03 18.09 Ю 1 20 км слаб. дождь 10/0
[As op]
+8.9 +6.4 84 +8 +11 1004.3 956.6
06 18.09 ЮЗ 2 20 км слаб. дождь 10/0
[As op]
+3.9 +2.5 91 +1 +2 1006.3 957.7
09 18.09 Ю 1 20 км слаб. ливневой дождь 10/10 600 м
[Cb cap]
+3.5 +2.5 93 +2 +2 1005.8 957.1 +11.9 2
12 18.09 З 1 20 км слаб. ливневой дождь 10/10 600 м
[Cb cap]
+2.2 +1.7 96 0 0 1005.3 956.3
15 18.09 Ю 1 50 км {ливн. осадки} 10/10 600 м
[Cb cap]
+1.3 +0.8 96 -1 -1 1003.2 954.2
18 18.09 Ю 1 20 км {ливн. осадки, дождь} 10/10 600 м
[Sc]
+1.1 +0.9 99 -1 -1 1001.2 952.3
21 18.09 Ю 1 50 км {туман} 10/10 600 м
[Sc]
+0.9 +0.7 99 -1 -1 1000.5 951.6 +0.7 1
00 19.09 Ю 1 50 км 10/10 600 м
[Sc]
+2.3 +1.4 94 +1 +1 1000.7 952.0
03 19.09 З 2 50 км 10/10 600 м
[Sc]
+5.4 +2.8 83 +3 +3 1001.2 953.1
06 19.09 СЗ 2 20 км слаб. дождь 10/10 600 м
[Sc]
+4.0 +2.9 93 +1 +1 1003.2 954.7
09 19.09 СЗ 2 20 км слаб. дождь 10/10 600 м
[Sc]
+5.6 +4.8 95 +3 +3 1004.8 956.5 +5.6 1
12 19.09 СЗ 2 20 км слаб. дождь 10/10 600 м
[Sc]
+5.8 +4.9 94 +3 +3 1007.7 959.3
15 19.09 штиль 0 20 км слаб. дождь 10/10 600 м
[Sc]
+5.3 +4.9 97 +4 +4 1010.2 961.6
18 19.09 З 1 50 км {дождь} 10/10 600 м
[Sc]
+5.3 +4.6 95 +4 +4 1011.7 963.0
21 19.09 СЗ 1 50 км 10/10 600 м
[Sc]
+5.1 +4.0 93 +4 +4 1014.1 965.3 +5.0 2
00 20.09 С 2 50 км 10/10 600 м
[Sc]
+7.5 +4.6 82 +5 +5 1016.2 967.7 +4.9
03 20.09 С 2 50 км 10/10 600 м
[Sc]
+9.9 +4.2 68 +9 +9 1017.6 969.4
06 20.09 В 1 50 км 8/8 600 м
[Sc]
+11.8 +5.4 65 +12 +13 1017.7 969.8
09 20.09 штиль 0 50 км 10/10 600 м
[Sc]
+8.9 +7.4 90 +8 +8 1019.8 971.4 +11.9
12 20.09 штиль 0 50 км ясно +3.6 +3.3 98 +2 +2 1022.1 972.6
15 20.09 штиль 0 500 м туман ясно +2.6 +2.3 98 +1 +1 1023.1 973.4
21 20.09 штиль 0 500 м туман ясно +0.1 -0.1 99 -1 -1 1022.8 972.6 0.0
00 21.09 СВ 1 50 км {туман} 4/0
[Ci fib]
+6.8 +5.2 90 +6 +11 1020.6 971.7
03 21.09 ЮВ 1 50 км 8/0
[Cs]
+15.3 +4.1 47 +16 +25 1016.9 969.7
06 21.09 З 1 50 км 10/8 600 м
[Sc As op]
+12.9 +4.8 58 +13 +13 1016.4 968.8
09 21.09 штиль 0 20 км слаб. дождь 10/10 600 м
[Sc]
+8.3 +7.7 96 +7 +7 1018.6 970.1 +15.9 0.8
12 21.09 штиль 0 50 км {дождь} 10/10 600 м
[Sc]
+7.4 +7.1 98 +6 +6 1019.8 971.1
15 21.09 штиль 0 20 км слаб. дождь 10/10 600 м
[Sc]
+7.2 +6.9 98 +6 +6 1020.2 971.5
18 21.09 штиль 0 50 км {дождь} 8/8 600 м
[Sc]
+6.7 +6.4 98 +6 +6 1020.6 971.8
21 21.09 Ю 1 50 км 10/10 600 м
[Sc]
+7.0 +6.7 98 +6 +6 1021.5 972.7 +6.5 0.5
00 22.09 Ю 1 50 км 10/10 600 м
[Sc]
+7.8 +5.9 88 +7 +7 1022.2 973.5
03 22.09 З 3 50 км 8/8 600 м
[Sc]
+11.0 +4.6 65 +9 +11 1021.3 973.1
06 22.09 З 2 50 км 6/6 600 м
[Sc]
+13.4 +4.1 53 +13 +15 1020.4 972.6
09 22.09 штиль 0 50 км 4/4 600 м
[Sc]
+8.7 +5.2 79 +8 +8 1022.2 973.6 +13.8
12 22.09 штиль 0 50 км ясно +2.4 +2.0 97 +1 +1 1024.5 974.7
15 22.09 штиль 0 50 км {метель} 4/0
[Cb cap]
-0.7 -0.8 99 -2 -2 1024.1 973.8
18 22.09 штиль 0 50 км 10/0
[Cs]
+0.1 -0.1 99 -1 -1 1022.7 972.5
21 22.09 штиль 0 50 км 10/0
[Cs]
+0.1 -0.0 99 -1 -1 1021.9 971.8 -0.9
00 23.09 Ю 1 50 км 3/0
[Ci fib]
+5.6 +5.3 98 +4 +9 1018.7 969.8
03 23.09 ЮВ 2 50 км 3/0
[Ci fib]
+16.9 +5.7 48 +17 +26 1012.5 965.7
06 23.09 З 3 50 км 3/0
[Ci fib]
+18.6 +5.1 41 +19 +22 1008.8 962.4
09 23.09 штиль 0 50 км ясно +12.0 +7.1 72 +12 +12 1008.3 960.9 +19.4
12 23.09 штиль 0 50 км ясно +5.7 +5.2 97 +5 +5 1008.3 959.8

 

Местоположение метеостанции Тивяку (Хабаровский край, Россия): широта 48.60 долгота 137.00 высота над уровнем моря 403 м.

В архиве по умолчанию представлена погода в Тивяку за последнюю неделю. Архивные данные за месяц целиком и за предыдущие месяцы, начиная с января 2011 года, Вы можете получить, выбрав интересующий диапазон дат из раскрывающегося списка и нажав кнопку "Ввод!".


*Определитесь, кто Вы:
робот инопланетянин человек

Внимание! Время в таблицах - всемирное. Для получения местного времени необходимо прибавить поправку, которая равна 10 ч.

Смотрите также архив погоды в соседних городах и на ближайших метеорологических станциях:

Погода в Елабуге (Хабаровский край, Россия) (91 км)
Погода в Солекуль (Хабаровский край, Россия) (97 км)
Погода в Троицком (Хабаровский край, Россия) (100 км)
Погода в Сукпае (Хабаровский край, Россия) (107 км)
Погода в Князе-Волконском (Хабаровский край, Россия) (113 км)
Погода в Оборе (Хабаровский край, Россия) (117 км)
Погода в Хабаровске 21 км (Хабаровский край, Россия) (122 км)
Погода в Гвасюгах (Хабаровский край, Россия) (123 км)
Погода в Хабаровске Аэр. Большой (Хабаровский край, Россия) (139 км)
Погода в Бичевой (Хабаровский край, Россия) (139 км)

Пояснения к столбцам:

Ветер - указаны скорость ветра в м/с - средняя за 10 мин, порывы в срок и между сроками (в фигурных скобках) и направление, откуда дует ветер: С - северный, СВ - северо-восточный, В - восточный, ЮВ - юго-восточный, Ю - южный, ЮЗ - юго-западный, З - западный, СЗ - северо-западный.
Видимость - горизонтальная дальность видимости в метрах или километрах. При видимости от 1 до 10 км при отсутствии осадков обычно наблюдается дымка, при ухудшении видимости до 1 км и менее - туман. В сухую погоду видимость может ухудшаться дымом, пылью или мглою.
Явления - указаны атмосферные явления, наблюдавшиеся в срок или в последний час перед сроком; фигурными скобками обозначены явления, наблюдавшиеся между сроками (за 1-3 часа до срока); квадратными скобками обозначены град или гололедные отложения с указанием их диаметра в мм.
Облачность - указаны через наклонную черту общая и нижняя облачность в баллах и высота нижней границы облаков в метрах; квадратными скобками обозначены формы облаков: Ci - перистые, Cs - перисто-слоистые, Cc - перисто-кучевые, Ac - высококучевые, As - высокослоистые, Sc - слоисто-кучевые, Ns - слоисто-дождевые, Cu - кучевые, Cb - кучево-дождевые. Подробнее классификацию облаков см. в Атласе облаков (PDF).
T - Температура воздуха - температура, измеренная на высоте 2 м над землей.
Td - Температура точки росы - температура, при понижении до которой содержащийся в воздухе водяной пар достигнет насыщения.
f - Относительная влажность воздуха - влажноcть воздуха, измеренная на высоте 2 м над землей.
Te - Эффективная температура - температура, которую ощущает одетый по сезону человек в тени. Характеристика душности погоды. При расчете учитывается влияние влажности воздуха и скорости ветра на теплоощущения человека.
Tes - Эффективная температура на солнце - температура, которую ощущает человек, с поправкой на солнечный нагрев. Характеристика знойности погоды. Зависит от высоты солнца над горизонтом, облачности и скорости ветра. Ночью, в пасмурную погоду, а также при ветре 12 м/с и более поправка равна нулю.
P - Атмосферное давление - приведенное к уровню моря атмосферное давление.
Po - Атмосферное давление - измеренное на уровне метеостанции атмосферное давление.
Tmin - Минимальная температура - минимум температуры воздуха на высоте 2 м над землей.
Tmax - Максимальная температура - максимум температуры воздуха на высоте 2 м над землей.
R - Количество осадков - Количество выпавших осадков за период времени, мм. При наведении курсора мыши на число - период времени, за который выпало указанное количество осадков.
R24 - Количество осадков - Количество выпавших осадков за 24 часа, мм.
S - Снежный покров - Высота снежного покрова, см. При наведении курсора мыши на число - состояние снежного покрова и степень покрытия местности в баллах.